Regional Weather Roundup
Issued by NWS Boston, MA

Current Version | Previous Version | Text Only | Print | Product List | Glossary Off
Versions: 1 2 3 4 5 6 7 8 9 10 11 12 13 14 15 16 17 18 19 20 21 22 23 24 25 26
000 ASUS41 KBOX 181310 RWRBOX REGIONAL WEATHER ROUNDUP NATIONAL WEATHER SERVICE TAUNTON MA 800 AM EST THU JAN 18 2018 NOTE: "FAIR" INDICATES FEW OR NO CLOUDS BELOW 12,000 FEET WITH NO SIGNIFICANT WEATHER AND/OR OBSTRUCTIONS TO VISIBILITY. MAZALL-181400- EASTERN MASSACHUSETTS CITY SKY/WX TMP DP RH WIND PRES REMARKS BOSTON FAIR 21 14 74 NW13 29.95F WCI 9 BEVERLY FAIR 18 14 84 W3 29.96R LAWRENCE FAIR 21 13 71 W7 29.97F WCI 12 BEDFORD FAIR 14 10 84 NW3 29.96S BLUE HILL NOT AVBL NORWOOD FAIR 20 14 77 NW6 29.96F WCI 12 MARSHFIELD FAIR 25 21 86 VRB3 29.95F PLYMOUTH FAIR 25 19 78 NW6 29.95S WCI 18 TAUNTON FAIR 22 16 78 NW6 29.95F WCI 14 NEW BEDFORD FAIR 24 21 88 VRB6 29.95S WCI 17 $$ MAZALL-181400- CAPE COD AND THE ISLANDS CITY SKY/WX TMP DP RH WIND PRES REMARKS FALMOUTH FAIR 27 23 86 NW6 29.95 WCI 20 HYANNIS CLOUDY 30 26 85 NW6 29.93R WCI 24 CHATHAM CLOUDY 30 27 88 NW7 29.94S WCI 23 PROVINCETOWN FAIR 30 25 81 MISG N/A NANTUCKET CLOUDY 31 29 92 NW7 29.95R WCI 24 MARTHAS VNYRD FAIR 27 27 100 N6 29.95R WCI 20 $$ MAZALL-181400- CENTRAL AND WESTERN MASSACHUSETTS CITY SKY/WX TMP DP RH WIND PRES REMARKS WORCESTER FAIR 13 5 70 W9 29.91S WCI 1 FITCHBURG FAIR 17 12 80 CALM 29.97S ORANGE FAIR 3 2 95 CALM 29.98S SPRINGFIELD PTCLDY 4 0 83 CALM 29.99S WESTFIELD FAIR 6 4 91 CALM 30.00R NORTH ADAMS FAIR 5 3 91 NW6 30.00F WCI -6 PITTSFIELD FAIR 15 7 70 NW10G20 29.93F WCI 2 $$ RIZALL-181400- RHODE ISLAND CITY SKY/WX TMP DP RH WIND PRES REMARKS PROVIDENCE MOCLDY 20 13 74 N6 29.97F WCI 12 NEWPORT FAIR 22 14 71 NW8 29.95S WCI 12 BLOCK ISLAND FAIR 23 17 78 N8 29.98R WCI 14 SMITHFIELD FAIR N/A N/A N/A NW5 29.94S WESTERLY FAIR 22 13 68 N9 29.98R WCI 12 $$ CTZALL-181400- CONNECTICUT CITY SKY/WX TMP DP RH WIND PRES REMARKS BRADLEY INTL FAIR 6 4 91 W3 30.02R HARTFORD FAIR 14 11 87 CALM 30.04R BRIDGEPORT FAIR 19 10 68 W8 30.04F WCI 9 DANBURY FAIR 12 7 80 W6 30.05R WCI 3 GROTON FAIR 22 10 60 N13G22 29.98R WCI 10 NEW HAVEN FAIR 20 10 65 NW9G18 30.01F WCI 9 CHESTER FAIR 19 10 68 CALM 29.97S MERIDEN FAIR 11 8 88 CALM 30.04R WILLIMANTIC FAIR 17 10 74 W5 29.99S WCI 10 OXFORD FAIR 9 6 88 SW3 30.00R $$ MEZ002-015-021-024-NHZ003-005-008-011-012-014-VTZ005-008-181400- NORTHERN NEW ENGLAND CITY SKY/WX TMP DP RH WIND PRES REMARKS PORTLAND ME FAIR 16 15 96 W3 29.94R BANGOR ME FAIR 9 8 96 NW3 29.92S CONCORD NH FAIR 15 10 80 W3 29.96R MANCHESTER NH FAIR 15 12 88 NW5 29.95S WCI 8 NASHUA NH FAIR 10 8 92 CALM 29.97S PORTSMOUTH NH PTCLDY 17 14 88 SW3 29.95R JAFFREY NH FAIR 6 4 91 CALM 29.91S KEENE NH NOT AVBL BURLINGTON VT FLURRIES 17 10 74 SW5 29.99S WCI 10 MT. WASHINGTON MOCLDY 9 -13 37 W56G70 N/A WCI -20 $$ NYZ052-076-181400- EASTERN NEW YORK CITY SKY/WX TMP DP RH WIND PRES REMARKS ALBANY FAIR 4 -1 80 CALM 30.06S NEW YORK CITY FAIR 22 9 57 NW15 30.07F WCI 9 $$ ANZALL-181400- MARINE OBSERVATIONS STATION/POSITION TIME TEMP WIND PRES VSBY WAVE AIR SEA DIR/SP/G HT/PER (UTC) (F) (DEG/KT/KT) (MB) (MI) (FT/S) BOSTON BUOY 1250 27 41 310/ 14/ 17 1013.6F 4/ 7 BUZZARDS BAY 1200 26 350/ 14/ 15 1014.2F NANTUCKET SOUND 1250 30 38 340/ 10/ 12 1013.9R 1/ 3 MASS BAY-STELLWA 1204 26 39 1013.8R 4/11 ISLE OF SHOALS 1300 23 290/ 12/ 13 1013.9F S OF BLOCK IS 1243 42 N/A 4/11 $$ ......................KEY......................... SKY/WX - SKY CONDITION/PRESENT WEATHER TMP - TEMPERATURE IN FAHRENHEIT DWPT - DEWPOINT IN FAHRENHEIT RH - RELATIVE HUMIDITY IN PERCENT WIND - DIRECTION AND SPEED IN MPH PRES - MEAN SEA LEVEL PRESSURE IN INCHES OF HG WCI - WIND CHILL INDEX VSB - VISIBILITY IN MILES HX - HEAT INDEX TC - TEMPERATURE IN CELSIUS VRB - VARIABLE WIND DIRECTION N/A - NOT AVAILABLE

USA.gov is the U.S. government's official web portal to all federal, state and local government web resources and services.